Location: Acton
(51.4942°N, 0.2232°W)
Time: 14:48:12
(UTC+00:00)

Cosmos 2278 Rocket - Visible Passes

Search period start: 15 January 2021 00:00
Search period end: 25 January 2021 00:00
Orbit: 839 x 847 km, 71.0° (Epoch: 15 January)

Date Brightness Start Highest point End Pass type
(mag) Time Alt. Az. Time Alt. Az. Time Alt. Az.
15 Jan 4.1 04:38:05 19° N 04:40:36 25° NE 04:45:12 10° E visible
15 Jan 2.2 06:19:57 11° NNW 06:25:28 90° SW 06:31:09 10° SSE visible
16 Jan 4.1 04:24:03 20° N 04:25:59 24° NE 04:30:32 10° E visible
16 Jan 2.2 06:05:54 14° NNW 06:10:54 88° ENE 06:16:35 10° SSE visible
17 Jan 4.1 04:10:03 22° NNE 04:11:23 23° NE 04:15:53 10° E visible
17 Jan 2.2 05:51:54 18° NNW 05:56:19 85° ENE 06:02:01 10° SSE visible
18 Jan 4.1 03:56:06 22° NNE 03:56:46 23° NE 04:01:13 10° E visible
18 Jan 2.2 05:37:58 22° NNW 05:41:45 82° ENE 05:47:26 10° SSE visible
19 Jan 4.2 03:42:14 22° NE 03:42:14 22° NE 03:46:35 10° E visible
19 Jan 2.2 05:24:06 29° NNW 05:27:11 80° ENE 05:32:52 10° SSE visible
19 Jan 3.5 07:06:31 10° NW 07:10:38 21° W 07:14:43 10° SSW visible
20 Jan 4.3 03:28:26 21° NE 03:28:26 21° NE 03:31:55 10° E visible
20 Jan 2.3 05:10:18 38° NNW 05:12:37 77° ENE 05:18:17 10° SE visible
20 Jan 3.4 06:52:11 11° NW 06:56:05 22° W 07:00:16 10° SSW visible
21 Jan 4.5 03:14:43 19° ENE 03:14:43 19° ENE 03:17:15 10° E visible
21 Jan 2.3 04:56:36 51° NNW 04:58:03 75° ENE 05:03:43 10° SE visible
21 Jan 3.4 06:38:29 15° WNW 06:41:33 22° WSW 06:45:49 10° SSW visible
21 Jan 4.5 19:49:11 10° S 19:49:25 11° S 19:49:25 11° S visible
22 Jan 4.8 03:01:07 15° ENE 03:01:07 15° ENE 03:02:35 10° E visible
22 Jan 2.3 04:43:00 68° NNE 04:43:28 72° ENE 04:49:08 10° SE visible
22 Jan 3.3 06:24:53 19° WNW 06:27:01 23° WSW 06:31:23 10° SSW visible
22 Jan 3.9 19:34:38 10° S 19:36:28 21° S 19:36:28 21° S visible
23 Jan 5.0 02:47:37 11° E 02:47:37 11° E 02:47:56 10° E visible
23 Jan 2.5 04:29:30 64° E 04:29:30 64° E 04:34:33 10° SE visible
23 Jan 3.2 06:11:24 23° W 06:12:29 24° WSW 06:16:55 10° SSW visible
23 Jan 3.1 19:20:07 10° S 19:23:28 34° SSE 19:23:28 34° SSE visible
23 Jan 4.7 21:04:37 10° WSW 21:05:24 14° WSW 21:05:24 14° WSW visible
24 Jan 3.1 04:16:08 43° ESE 04:16:08 43° ESE 04:19:58 10° SE visible
24 Jan 3.2 05:58:03 25° WSW 05:58:03 25° WSW 06:02:27 10° SSW visible
24 Jan 2.5 19:05:36 10° S 19:10:25 47° SE 19:10:25 47° SE visible
24 Jan 4.2 20:50:00 10° WSW 20:52:21 23° W 20:52:21 23° W visible
